SCP
0 0 0 0 0 0 0 0 0 0 0 0 0 0 0 0 0 0 0 0 0 0 0 0 0 0 0 0 0 0 0 0 0 0 0 0 0 0 0 0 0 0 0
0 0 0 0 0 0 0 0 0 0 0 0 0 0 0 0 0 0 0 0 0 0 0 0 0 0 0 0 0 0 0 0 0 0 0 0 0 0 0 0 0 0 0
0 0 0 0 0 0 0 0 0 0 0 0 0 0 0 0 0 0 0 0 0 0 0 0 0 0 0 0 0 0 0 0 0 0 0 0 0 0 0 0 0 0 0
0 0 0 0 0 0 0 0 0 0 0 0 0 0 0 0 0 0 0 0 0 0 0 0 0 0 0 0 0 0 0 0 0 0 0 0 0 0 0 0 0 0 0
0 0 0 1 1 0 0 0 0 0 0 0 0 0 0 0 0 0 0 0 0 0 0 0 0 0 0 0 0 0 0 0 0 0 0 0 0 0 0 0 0 0 0
0 0 0 1 1 1 0 0 0 0 0 0 0 0 0 0 0 0 0 0 0 0 0 0 0 0 0 0 0 0 0 0 0 0 0 0 0 0 0 0 0 0 0
0 0 0 1 1 1 0 0 0 0 0 0 0 0 0 0 0 0 0 0 0 0 0 0 0 0 0 0 0 0 0 0 0 0 0 0 0 0 0 0 0 0 0
0 0 0 0 0 0 0 0 0 0 0 0 0 0 0 0 0 0 0 0 0 0 0 0 0 0 0 0 0 0 0 0 0 0 0 0 0 0 0 0 0 0 0
0 0 0 0 0 0 0 0 0 0 0 0 0 0 0 0 0 0 0 0 0 0 0 0 0 0 0 0 0 0 0 0 0 0 0 0 0 0 0 0 0 0 0
0 0 0 0 0 0 0 0 0 0 0 0 0 0 0 0 0 0 0 0 0 0 0 0 0 0 0 0 0 0 0 0 0 0 0 0 0 0 0 0 0 0 0
0 0 0 0 0 0 0 0 0 0 0 0 0 0 0 0 0 0 0 0 0 0 0 0 0 0 0 0 0 0 0 0 0 0 0 0 0 0 0 0 0 0 0
0 0 0 0 0 0 0 0 0 0 0 0 0 0 0 0 0 0 0 0 0 0 0 0 0 0 0 0 0 0 0 0 0 0 0 0 0 0 0 0 0 0 0
0 0 0 0 0 0 0 0 0 0 0 0 0 0 0 0 0 0 0 0 0 0 0 0 0 0 0 0 0 0 0 0 0 0 0 0 0 0 0 0 0 0 0
0 0 0 0 1 1 0 0 0 0 0 0 0 0 0 0 0 0 0 0 0 0 0 0 0 0 0 0 0 0 0 0 0 0 0 0 0 0 0 0 0 0 0
0 0 0 0 1 1 1 0 0 0 0 0 0 0 0 0 0 0 0 0 0 0 0 0 0 0 0 0 0 0 0 0 0 0 0 0 0 0 0 0 0 0 0
0 0 0 0 0 1 1 0 0 0 0 0 0 0 0 0 0 0 0 0 0 0 0 0 0 0 0 0 0 0 0 0 0 0 0 0 0 0 0 0 0 0 0
0 0 0 0 0 1 1 0 0 0 0 0 0 0 0 0 0 0 0 0 0 0 0 0 0 0 0 0 0 0 0 0 0 0 0 0 0 0 0 0 0 0 0
0 0 0 0 0 0 0 0 0 0 0 0 0 0 0 0 0 0 0 0 0 0 0 0 0 0 0 0 0 0 0 0 0 0 0 0 0 0 0 0 0 0 0
0 0 0 0 0 0 0 0 0 0 0 0 0 0 0 0 0 0 0 0 0 0 0 0 0 0 0 0 0 0 0 0 0 0 0 0 0 0 0 0 0 0 0
0 0 0 0 0 0 0 0 0 0 0 0 0 0 0 0 0 0 0 0 0 0 0 0 0 0 0 0 0 0 0 0 0 0 0 0 0 0 0 0 0 0 0
0 0 0 0 0 0 0 0 0 0 0 0 0 0 0 0 0 0 0 0 0 0 0 0 0 0 0 0 0 0 0 0 0 0 0 0 0 0 0 0 0 0 0
0 0 0 0 0 0 0 0 0 0 0 0 0 0 0 0 0 0 0 0 0 0 0 0 0 0 0 0 0 0 0 0 0 0 0 0 0 0 0 0 0 0 0
0 0 0 0 0 0 0 0 0 0 0 0 0 0 0 0 0 0 0 0 0 0 0 0 0 0 0 0 0 0 0 0 0 0 0 0 0 0 0 0 0 0 0
0 0 0 0 0 0 0 0 0 0 0 0 0 0 0 0 0 0 0 0 0 0 0 0 0 0 0 0 0 0 0 0 0 0 0 0 0 0 0 0 0 0 0
0 0 0 0 0 0 0 0 0 0 0 0 0 0 0 0 0 0 0 0 0 0 0 0 0 0 0 0 0 0 0 0 0 0 0 0 0 0 0 0 0 0 0
0 0 0 0 0 0 0 0 0 0 0 0 0 0 0 0 0 0 0 0 0 0 0 0 0 0 0 0 0 0 0 0 0 0 0 0 0 0 0 0 0 0 0
Wind_Speed
3 4 3 4 5 6 7 7 8 8 8 9 9 9 10 10 10 10 11 11 11 12 13 13 13 14 14 14 15 15 15 15 16 16 15 15 15 15 15 14 14 11 17
4 5 4 4 5 6 7 8 7 8 8 7 8 9 9 10 9 10 10 11 11 11 12 13 13 13 13 13 13 13 13 13 14 13 13 12 13 14 15 15 14 11 16
6 6 4 4 5 6 7 7 7 8 8 7 7 8 8 9 9 9 10 10 11 11 11 12 12 12 12 12 12 11 11 10 9 9 9 6 9 14 15 15 15 16 16
6 6 4 5 6 6 7 7 7 7 7 7 7 7 8 9 9 9 10 10 10 11 11 11 12 12 11 11 11 10 9 9 8 7 6 6 7 13 15 15 15 15 15
5 5 5 6 6 6 7 7 7 6 7 7 7 7 8 8 9 10 11 10 10 10 11 11 11 11 11 10 9 9 8 8 8 8 6 7 6 12 14 14 14 14 15
5 5 5 6 6 6 6 7 7 6 6 6 7 7 7 8 9 10 10 10 10 10 10 10 10 10 10 9 8 8 8 7 6 5 6 6 6 11 13 13 13 14 14
5 5 5 6 6 6 6 7 6 6 6 6 6 7 7 7 8 9 9 9 9 9 9 9 10 10 9 8 7 7 7 7 5 6 5 6 7 12 12 13 13 13 14
5 5 5 5 5 6 6 6 6 6 6 6 6 7 7 7 8 8 8 8 9 8 9 9 9 9 9 8 7 6 7 6 6 7 5 5 9 11 12 12 13 13 13
6 5 4 3 4 4 5 5 5 5 5 5 6 6 6 6 7 7 7 8 8 8 8 8 9 9 8 7 6 6 6 7 5 4 6 5 9 11 11 11 12 12 13
6 5 4 3 2 2 2 4 4 5 5 5 5 5 6 5 6 6 6 6 7 7 7 8 8 8 7 6 4 4 5 5 5 5 3 5 10 11 11 11 11 11 12
5 4 3 3 2 2 1 3 3 4 4 4 4 4 4 2 3 3 5 6 6 6 6 7 7 7 6 4 2 3 3 3 4 4 3 7 10 10 10 10 10 11 11
5 4 3 3 2 2 1 2 1 2 2 2 2 2 1 1 2 3 5 5 5 5 5 6 6 5 3 1 1 1 1 4 4 3 4 7 9 9 10 10 10 10 10
4 3 3 3 2 2 1 1 1 1 1 1 2 1 1 2 2 3 2 3 3 3 2 3 3 2 1 1 1 1 2 3 3 3 3 6 7 8 9 9 9 9 9
4 4 3 3 2 2 2 0 1 1 0 1 1 1 1 1 1 2 1 2 2 1 1 2 1 1 2 2 2 1 2 3 3 3 3 6 7 7 8 8 8 9 9
3 4 3 3 3 2 2 1 1 1 0 0 0 1 1 1 1 1 1 1 1 1 1 1 1 1 2 1 2 2 2 3 4 4 3 5 6 6 7 8 8 8 9
4 3 4 3 3 2 1 1 0 0 0 0 0 0 1 1 1 1 1 1 1 1 1 1 1 2 1 1 2 2 3 3 4 4 3 4 6 6 6 7 7 8 8
4 3 3 3 2 2 2 1 1 0 0 0 0 0 0 1 1 1 1 1 1 1 1 1 2 2 2 2 2 2 2 3 4 4 4 3 3 5 6 6 7 7 7
3 3 3 3 3 2 2 1 1 0 0 1 0 0 1 1 1 0 1 1 1 1 1 1 1 2 2 2 2 2 2 2 3 3 3 3 3 3 3 5 5 6 6
2 3 3 3 2 2 2 2 1 1 0 1 1 1 0 0 0 0 1 1 1 1 1 1 1 2 2 2 2 2 1 2 2 3 3 3 3 3 2 4 5 5 5
2 2 2 2 2 2 1 1 1 1 1 0 1 1 0 0 0 0 1 1 1 1 1 1 1 2 2 2 3 2 1 1 1 2 2 2 2 3 3 3 2 3 4
3 3 2 2 2 1 1 1 1 1 1 1 1 1 1 1 1 0 1 1 1 1 1 1 2 3 2 3 3 2 1 1 1 1 2 2 2 2 3 3 2 2 2
2 3 3 3 2 1 1 1 1 2 2 2 1 1 1 1 1 1 1 1 1 2 2 1 2 2 2 3 3 3 2 0 1 1 1 2 2 2 2 2 2 2 2
3 3 3 3 3 2 1 1 1 1 1 1 1 2 2 2 2 2 2 2 2 2 3 3 3 2 3 3 2 2 3 3 1 0 1 1 2 2 2 2 2 2 2
4 4 4 4 3 2 1 1 2 2 2 2 2 2 2 2 2 2 2 2 2 2 3 4 3 2 3 3 2 1 1 2 3 2 1 1 2 2 1 1 2 2 2
3 3 4 4 3 3 1 1 2 2 2 2 2 2 2 2 2 2 2 2 2 2 3 4 3 3 3 3 3 2 1 1 1 3 3 2 1 1 1 2 2 1 1
4 3 4 4 4 3 2 2 2 2 2 2 2 2 2 2 2 3 2 2 2 3 3 4 4 4 4 4 3 2 2 3 3 2 3 3 2 2 2 1 2 2 2
Wind_Direction
87 108 94 82 82 82 85 83 83 84 85 84 81 78 78 77 81 83 85 85 85 87 86 85 83 81 79 77 77 77 78 79 79 76 72 71 73 75 75 76 75 74 78
110 115 95 88 90 89 87 85 82 79 80 83 83 80 82 80 83 84 84 85 86 87 87 86 83 82 80 80 80 80 80 83 85 83 78 72 73 76 75 74 77 80 79
104 113 107 86 91 97 92 87 82 78 78 79 83 83 84 85 83 83 83 83 86 87 87 85 85 84 83 82 83 81 79 79 80 85 81 80 79 80 80 77 78 81 80
97 108 107 79 95 97 96 91 88 83 79 75 78 83 87 87 85 82 81 83 83 85 86 87 87 86 87 84 81 78 71 64 67 69 73 74 78 83 82 81 81 81 81
96 103 98 80 95 95 95 96 95 89 83 76 74 79 85 87 86 83 79 80 83 83 84 85 88 88 87 85 79 72 61 55 59 64 69 72 71 83 84 83 84 83 82
93 98 104 81 84 88 90 96 97 93 89 82 74 76 85 86 86 83 81 77 80 85 87 86 88 91 89 85 78 65 48 49 56 61 65 75 76 86 88 86 86 85 84
87 94 107 82 79 83 89 93 95 95 91 85 80 80 88 90 89 88 84 81 79 87 90 92 90 91 92 87 76 57 44 46 70 63 59 69 79 86 89 89 88 87 86
71 85 95 68 70 76 85 90 91 91 91 85 79 80 83 89 92 94 89 87 85 89 93 91 93 90 92 89 75 52 39 54 77 77 66 71 85 88 88 89 89 88 87
64 74 80 77 74 65 71 79 85 85 80 80 80 78 74 82 91 97 94 92 89 88 95 93 92 92 90 87 72 48 42 49 66 75 78 76 88 90 90 91 90 89 87
57 60 59 59 74 87 92 72 77 80 75 75 77 74 72 81 92 90 95 91 90 88 97 99 97 91 87 81 67 40 33 46 71 70 72 86 93 94 93 93 92 92 91
44 50 47 33 43 52 105 91 84 91 83 81 81 83 87 107 118 103 96 85 89 89 101 109 107 100 85 67 42 27 22 73 72 72 70 91 98 98 96 94 96 96 95
21 29 34 26 25 35 74 121 134 131 129 115 102 107 108 87 107 99 94 86 89 89 100 115 120 120 98 77 4 358 47 82 77 75 74 91 99 101 100 98 99 99 99
7 16 15 10 25 23 31 102 114 109 147 128 117 101 70 73 102 108 113 102 104 110 108 122 141 162 144 123 72 43 66 82 82 79 75 88 98 103 104 103 102 103 103
5 3 8 7 12 21 6 66 87 82 166 125 155 127 90 80 99 125 133 147 152 146 145 167 190 160 131 142 135 103 87 95 97 91 80 84 94 103 108 108 106 109 107
358 0 350 4 9 14 8 342 89 92 314 100 143 152 102 115 118 137 141 147 168 149 159 191 153 122 118 116 115 111 103 105 108 103 91 84 91 98 108 109 108 111 111
354 351 346 352 1 4 16 345 18 99 11 64 60 149 125 146 130 161 149 156 165 156 175 182 136 109 105 100 96 94 98 107 114 114 113 95 91 97 105 110 109 106 108
342 339 344 333 356 358 356 352 334 101 98 111 359 334 33 139 141 175 161 168 169 169 168 144 122 105 107 91 80 78 90 109 117 118 121 117 107 95 100 109 111 110 105
340 341 337 335 341 345 343 323 323 313 72 129 119 38 1 16 136 176 167 173 174 163 146 129 140 117 109 100 85 68 63 88 103 115 121 123 123 116 106 107 109 114 113
344 350 331 337 332 340 339 316 329 296 265 152 134 99 340 3 34 342 168 178 173 158 153 155 139 134 134 116 102 84 70 79 104 115 124 123 124 125 125 119 115 115 114
342 347 333 341 336 339 336 329 340 295 268 188 152 158 188 215 244 318 181 179 158 172 182 154 144 132 138 132 109 87 67 77 91 114 128 119 125 132 135 136 130 127 126
346 348 340 338 334 338 347 340 284 269 256 227 202 181 161 203 237 233 180 188 181 186 195 179 151 146 143 129 107 92 44 55 81 109 111 117 125 126 130 138 147 141 147
331 337 334 327 308 298 338 294 265 256 245 231 217 214 201 208 219 225 168 198 205 188 184 188 153 154 168 161 147 139 140 81 358 55 119 137 156 144 140 136 143 149 154
350 339 323 314 309 304 339 319 296 274 248 234 217 213 227 220 212 214 191 197 211 202 195 201 184 187 182 195 186 162 160 180 172 226 169 158 156 152 163 159 152 152 142
341 342 332 330 321 302 298 280 257 243 238 240 209 215 229 225 215 214 195 203 207 209 202 203 200 209 188 194 213 234 213 158 151 163 210 193 171 163 170 168 159 152 149
341 341 329 334 323 332 327 267 258 261 254 237 217 217 217 221 212 224 211 208 210 213 211 206 208 214 207 202 200 210 232 189 155 157 184 191 199 203 187 176 154 149 145
346 345 336 331 319 326 329 294 267 281 287 263 227 215 221 218 205 218 225 220 221 220 214 211 208 220 221 211 210 209 195 191 194 175 179 181 186 212 205 179 167 164 149